Weather History for Francistown, Botswana

Change the Weather History Date:

Tuesday, September 10, 2013

  Actual Average Record
Temperature  
Mean Temperature 69 °F -  
Max Temperature 91 °F 84 °F - ()
Min Temperature 47 °F 57 °F - ()
Cooling Degree Days 4    
Growing Degree Days 19 (Base 50)    
Moisture  
Dew Point 37 °F    
Average Humidity 29    
Maximum Humidity 52    
Minimum Humidity 7    
Precipitation  
Precipitation 0.00 in - - ()
Sea Level Pressure  
Sea Level Pressure 30.05 in    
Wind  
Wind Speed 5 mph ()    
Max Wind Speed 17 mph    
Max Gust Speed -    
Visibility 6.0 miles    
Events      
T = Trace of Precipitation, MM = Missing Value Source: Averaged Metar Reports

Daily Weather History Graph

Daily Weather History Graph

Search for Another Location

Airport:

Trip Planner

Search our weather history database for the weather conditions in past years. The results will help you decide how hot, cold, wet, or windy it might be!

Date:

Astronomy

Sep. 10, 2013 Rise Set
Actual Time 6:11 AM CAT 6:03 PM CAT
Civil Twilight 5:48 AM CAT 6:25 PM CAT
Nautical Twilight 5:23 AM CAT 6:51 PM CAT
Astronomical Twilight 4:57 AM CAT 7:16 PM CAT
Moon 9:25 AM CAT (9/10) 10:47 PM CAT (9/10)
Length of Visible Light 12h 36m
Length of Day
11h 52m
Waxing Crescent, 25% of the Moon is Illuminated
Sep 10
Waxing Crescent
Sep 12
First Quarter
Sep 19
Full
Sep 27
Last Quarter
Oct 5
New

Hourly Weather History & Observations

Time (CAT) Temp. Dew Point Humidity Pressure Visibility Wind Dir Wind Speed Gust Speed Precip Events Conditions
12:00 AM 55.4 °F 24.8 °F 31% 30.06 in - North 3.5 mph - N/A   Clear
1:00 AM 55.4 °F 26.6 °F 33% 30.06 in - NNW 2.3 mph - N/A   Clear
2:00 AM 53.6 °F 24.8 °F 33% 30.04 in - North 1.2 mph - N/A   Clear
3:00 AM 51.8 °F 26.6 °F 38% 30.04 in - North 1.2 mph - N/A   Clear
4:00 AM 50.0 °F 23.0 °F 35% 30.04 in - NNW 2.3 mph - N/A   Clear
5:00 AM 50.0 °F 23.0 °F 35% 30.04 in - North 2.3 mph - N/A   Clear
6:00 AM 48.2 °F 14.0 °F 25% 30.04 in - SE 6.9 mph - N/A   Clear
7:00 AM 53.6 °F 26.6 °F 35% 30.09 in - South 3.5 mph - N/A   Clear
8:00 AM 63 °F 29 °F 17%  in 6 mi ESE 5.8 mph - -   Partly Cloudy
8:00 AM 62.6 °F 28.4 °F 27% 30.12 in - ESE 5.8 mph - N/A   Clear
9:00 AM 71.6 °F 35.6 °F 27% 30.12 in - SE 6.9 mph - N/A   Clear
10:00 AM 78.8 °F 37.4 °F 23% 30.15 in - ESE 10.4 mph - N/A   Clear
11:00 AM 82.4 °F 41.0 °F 23% 30.12 in - ESE 9.2 mph - N/A   Clear
12:00 PM 87.8 °F 41.0 °F 19% 30.09 in - ESE 12.7 mph - N/A   Clear
1:00 PM 89.6 °F 46.4 °F 22% 30.04 in - ESE 10.4 mph - N/A   Clear
2:00 PM 90 °F 47 °F 14%  in 6 mi East 11.5 mph - -   Partly Cloudy
2:00 PM 89.6 °F 46.4 °F 22% 30.01 in - East 11.5 mph - N/A   Clear
3:00 PM 89.6 °F 46.4 °F 22% 29.98 in - East 17.3 mph - N/A   Clear
4:00 PM 89.6 °F 46.4 °F 22% 29.98 in - ESE 8.1 mph - N/A   Clear
5:00 PM 91.4 °F 19.4 °F 7% 29.98 in - NE 10.4 mph - N/A   Clear
6:00 PM 86.0 °F 46.4 °F 25% 29.98 in - ESE 13.8 mph - N/A   Clear
7:00 PM 78.8 °F 48.2 °F 34% 30.01 in - SE 9.2 mph - N/A   Clear
8:00 PM 75 °F 49 °F 29%  in 6 mi SE 8.1 mph - -   Partly Cloudy
8:00 PM 75.2 °F 48.2 °F 38% 30.04 in - SE 8.1 mph - N/A   Clear
9:00 PM 73.4 °F 50.0 °F 44% 30.04 in - SE 8.1 mph - N/A   Clear
10:00 PM 66.2 °F 46.4 °F 49% 30.06 in - ESE 5.8 mph - N/A   Clear
11:00 PM 64.4 °F 46.4 °F 52% 30.06 in - ESE 5.8 mph - N/A   Clear